026  
ASUS41 KAKQ 091416  
RWRAKQ  
 
REGIONAL WEATHER ROUNDUP  
NATIONAL WEATHER SERVICE WAKEFIELD VA  
1000 AM EDT SUN AUG 09 2020  
 
NOTE: "FAIR" INDICATES FEW OR NO CLOUDS BELOW 12,000 FEET WITH NO  
SIGNIFICANT WEATHER AND/OR S TO VISIBILITY
. * = DENOTES  
STATION MAY NOT REPORT PRECIPITATION (E.G., RAIN,SNOW,ETC.),
 
THUNDER OR FOG.  
 
VAZ042-051-052>054-056-091500-  
NORTHERN VIRGINIA  
 
CITY SKY/WX TMP DP RH WIND PRES REMARKS
 
WASH NATIONAL MOSUNNY 81 73 76 SE6 30.15F  
DULLES MOSUNNY 82 74 76 CALM 30.15F  
FORT BELVOIR SUNNY 83 72 69 S5 30.15S  
QUANTICO MOSUNNY 80 72 76 S5 30.15F  
FREDERICKSBRG* SUNNY 81 73 78 CALM 30.14F  
STAFFORD* MOSUNNY 81 77 89 CALM 30.19F  
WARRENTON MOSUNNY 82 74 77 S3 30.15F  
CULPEPER* MOSUNNY 79 73 83 CALM 30.17S  
MANASSAS* MOSUNNY 81 74 79 S6 30.15F  
LEESBURG* SUNNY 73 70 88 CALM 30.17F  
WINCHESTER SUNNY 77 70 78 CALM 30.16F  
FRONT ROYAL* FAIR 81 73 78 S3 30.16F  
LURAY* PTSUNNY 73 72 94 S3 30.18F  

 
 
VAZ048-049-060>072-079>083-091500-  
CENTRAL AND SOUTH CENTRAL VIRGINIA  
 
CITY SKY/WX TMP DP RH WIND PRES REMARKS
 
RICHMOND MOSUNNY 79 72 79 S6 30.16F  
CHESTERFIELD* CLOUDY 73 71 93 CALM 30.17S  
PETERSBURG* CLOUDY 71 69 93 CALM 30.17F  
HANOVER SUNNY 80 72 76 VRB5 30.17S  
TAPPAHANNOCK* N/A 75 75 100 SE3 30.17S  
QUINTON* FAIR 78 73 85 CALM 30.16S  
CHARLOTTSVILLE SUNNY 80 73 79 S3 30.17S  
GORDONSVILLE* FAIR 80 75 83 S5 30.15F  
ORANGE* SUNNY 81 72 74 CALM 30.16F  
LOUISA* SUNNY 80 72 75 W5 30.20F  
BUMPASS* FAIR 79 71 77 SW3 30.16F  
FARMVILLE* CLOUDY 73 71 95 CALM 30.16S  
CREWE* CLOUDY N/A N/A N/A CALM 30.17F  
FORT PICKETT* NOT AVBL  
CHASE CITY* CLOUDY 75 73 92 CALM 30.17F  
CLARKSVILLE* PTSUNNY 75 75 100 CALM 30.17S  
SOUTH HILL* N/A N/A N/A N/A MISG N/A  
LAWRENCEVILLE* CLOUDY 73 73 97 CALM 30.18S  
EMPORIA* CLOUDY 74 72 96 N3 30.17F  

 
 
VAZ088>098-091500-  
SOUTHEAST VIRGINIA  
 
CITY SKY/WX TMP DP RH WIND PRES REMARKS
 
NORFOLK PTSUNNY 83 72 69 NE5 30.15F  
VIRGINIA BEACH MOSUNNY 82 72 71 E5 30.14F  
NORFOLK NAVAL PTSUNNY 84 72 67 N6 30.17S  
WEST POINT* SUNNY 77 73 87 SE5 30.17F  
SALUDA* PTSUNNY 79 79 100 CALM 30.15F  
NEWPORT NEWS MOSUNNY 83 71 67 NE3 30.16S  
LANGLEY AFB PTSUNNY 81 77 89 E6 30.16S  
FORT EUSTIS MOSUNNY 81 76 82 NW5 30.14S  
WILLIAMSBURG* N/A 81 73 78 CALM 30.17S  
HR EXEC AP* FAIR 80 74 81 VRB3 30.16S  
FRANKLIN* MOSUNNY 76 74 94 CALM 30.16S  
US460-WAKEFLD MOSUNNY 78 72 81 CALM 30.16S  

 
 
VAZ020-022-025-037-045-091500-  
WEST CENTRAL AND SOUTHWEST VIRGINIA  
 
CITY SKY/WX TMP DP RH WIND PRES REMARKS
 
STAUNTON* PTSUNNY 76 70 82 CALM 30.23S  
WAYNESBORO* PTSUNNY 75 71 87 CALM 30.22S  
HOT SPRINGS VA MOSUNNY 72 65 80 NW6 30.34S  
LYNCHBURG MOSUNNY 82 72 71 CALM 30.18F  
DANVILLE MOSUNNY 78 72 81 CALM 30.17F  
SOUTH BOSTON* CLOUDY 74 73 95 CALM 30.17F  
MARTINSVILLE CLOUDY 79 74 85 CALM 30.22S  
ROANOKE MOSUNNY 77 71 82 W5 30.22F  
BLACKSBURG PTSUNNY 73 72 95 CALM 30.29S  
DUBLIN* MOSUNNY 75 70 84 CALM 30.27S  
MARION* SUNNY 76 67 74 CALM 30.30S  
HILLSVILLE* SUNNY 72 68 87 CALM 30.28S  
RICHLANDS* FAIR 72 65 80 CALM 30.29S  
WISE* SUNNY 73 61 64 CALM 30.30R  
ABINGDON* SUNNY 73 61 65 CALM 30.26S  

 
 
MDZ021>025-VAZ099-100-091500-  
SOUTHERN MARYLAND AND THE DELMARVA PENINSULA  
 
CITY SKY/WX TMP DP RH WIND PRES REMARKS
 
PATUXENT RIVER MOSUNNY 83 76 79 CALM 30.14F  
BAY BRIDGE APT SUNNY 81 75 83 W3 30.15S  
LEONARDTOWN SUNNY 81 70 69 CALM 30.17S  
DOVER DRIZZLE 81 72 74 CALM 30.14F  
GEORGETOWN PTSUNNY 84 74 71 NE5 30.15F  
EASTON PTSUNNY 82 75 78 CALM 30.18F  
CAMBRIDGE MOSUNNY 81 73 78 CALM 30.15S  
SALISBURY MOSUNNY 81 72 74 CALM 30.15F  
TANGIER NOT AVBL  
OCEAN CITY MOSUNNY 80 73 79 S6 30.16F  
WALLOPS ISLAND PTSUNNY 79 73 82 MISG 30.16F  
ACCOMACK* MOSUNNY 81 70 69 CALM 30.16F  

 
 
NCZ012>017-030>032-091500-  
NORTH CENTRAL AND EASTERN NORTH CAROLINA  
 
CITY SKY/WX TMP DP RH WIND PRES REMARKS
 
ROANOKE RAPIDS FAIR 73 73 100 CALM 30.16S  
RALEIGH MOSUNNY 83 74 74 VRB3 30.16F  
ELIZABETH CITY MOSUNNY 83 77 82 VRB5 30.15F  
AHOSKIE* SUNNY 75 74 99 CALM 30.16S  
EDENTON* SUNNY 79 76 90 CALM 30.17S  
CURRITUCK* MOSUNNY 80 78 92 NE6 30.15S  
KILL DEVIL HLS CLOUDY 78 75 89 CALM 30.14S  
MANTEO CLOUDY 79 74 84 N5 30.16S  
CAPE HATTERAS MOSUNNY 85 78 80 N3 30.15S HX 96  
TARBORO* FAIR 79 74 84 W6 30.15F  
GOLDSBORO SUNNY 80 76 87 CALM 30.14S  
WASHINGTON SUNNY 80 73 77 CALM 30.16S  
GREENVILLE CLOUDY 79 75 89 CALM 30.17S  
NEW BERN SUNNY 82 74 76 CALM 30.17S  
WILMINGTON PTSUNNY 85 75 72 CALM 30.15S  

 
 
VAZ048-091500-  
ELSEWHERE  
 
CITY SKY/WX TMP DP RH WIND PRES REMARKS
 
HARRISBURG PA MOSUNNY 79 69 71 W7 30.14S  
BALTIMORE MOSUNNY 82 72 71 W8 30.14F  
ANNAPOLIS SUNNY 82 74 76 W3 30.14F  
ANDREWS AFB SUNNY 82 72 72 S6 30.15F  
PHILADELPHIA MOSUNNY 80 71 74 VRB5 30.14F  
HENDERSON NC MOSUNNY 74 72 91 CALM 30.17F  
GREENSBORO MOSUNNY 79 73 82 E3 30.18S  
ROCKY MOUNT PTSUNNY 78 74 87 N3 30.17S  

 
 
VAZ100-091500-  
MARINE  
 
STATION/POSITION TIME TEMP WIND PRES WAVE SWELL
 
AIR SEA DIR/SP/G HT/PER HT/PER  
(UTC) (F) (DEG/KT/KT) (MB) (FT/S) (FT/S)  
CAPE MAY NJ 1324 76 72 210/ 4/ 5 1021.0  
LEWES DE 1324 76 76 10/ 1/ 3 1021.2  
15NM E FENWICK I 1350 N/A 2/ 5  
OCEAN-CITY-INLET 1324 77 78 180/ 4/ 5 1022.2  
44089 WALLOPS IS 1356 72 N/A 2/10  
WACHAPREAGUE VA 1324 83 81 CALM / 2 1021.4  
THOMAS POINT MD 1400 78 82 170/ 3/ 4 1021.7F  
GOOSES REEF MD 1400 80 83 N/A  
COVE POINT MD 1324 150/ 4/ 5 1021.5  
SOLOMONS ISLAND 1324 83 83 CALM / 1 1020.8  
BISHOPS HEAD MD 1324 80 82 140/ 3/ 4 1021.0  
PINEY POINT MD 1324 220/ 2/ 3 N/A  
CAMBRIDGE MD 1324 82 83 CALM / 2 1021.0  
LEWISETTA VA 1324 78 81 180/ 4/ 5 1021.1  
RAPPAHANNOCK LGT 1324 70/ 4/ 4 1021.8  
STINGRAY PT 1348 80 85 CALM 1023.9F  
YORK RVR RNG VA 1324 79 40/ 5/ 9 1021.8  
YORKTOWN VA 1324 79 83 10/ 2/ 3 1021.0  
DOMINION TERM VA 1324 79 220/ 3/ 3 1021.1  
KIPTOPEKE VA 1324 81 110/ 5/ 7 N/A  
CAPE HENRY VA 1324 78 100/ 3/ 5 1021.6  
WILLOUBY STN VA 1324 80 110/ 3/ 4 1020.3  
S CRANEY ISL VA 1324 80 90/ 2/ 3 1020.8  
64NM E OF VA BCH 1350 77 78 50/ 8/ 10 1020.9S 2/10 2/10  
DUCK PIER NC 1324 76 20/ 6/ 6 1020.9  
44100 DUCK FRF 1356 74 N/A 2/10  
44056 DUCK FRF 1356 78 N/A 1/11  
OREGON INLET NC 1324 79 82 30/ 4/ 5 1021.0  
HATTERAS NC 1324 80 83 330/ 6/ 8 1021.2  
DIAMOND SHLS NC 1350 82 83 260/ 8/ 10 1020.4 2/11 2/11  
CAPE LOOKOUT NC 1400 84 300/ 6/ 7 1021.0F  

 
 
 
CLICK HERE TO GO TO PREVIOUS BULLETINS.

The Nexlab VA Page
The Nexlab NC Page
The Nexlab MD Page Main Text Page